SL-8 R/B

Satellite information

Favourite Embed

Satellite Type and Status

ROCKET BODYIN ORBIT

Key statistics

Satellite SL-8 R/B at a glance.

Uptime

14450

Days in orbit

Revolutions

≈ 13.8

Per day

Orbit

LEO

Low Earth Orbit

Inclination

83.0

Latest

Satellite identification and parameters

Extended collection of information and parameters for SL-8 R/B.

Object identification

Identified? True

Debris? False

Object name: SL-8 R/B

International designator: 1986-037B

Object number (NORAD): 16728

Object ID (CCSDS): 16728

Country: COMMONWEALTH OF INDEPENDENT STATES (CIS)

Current information (Y/N): Y

RCS size: LARGE

Orbital parameters

Period: 104.571 minutes

Inclination: 82.9544 deg

SMA: 7352.495 km

Apoapsis: 997.122 km

Periapsis: 951.598 km

RAAN: 197.132 deg

Eccentricy: 0.0030958

Argument of periapsis: 161.9029 deg

Mean anomaly: 258.6779 deg

Mean motion: 13.7705292 rev/day

Mean motion (dot): 0.00000169 rev/day2

B* drag term: 0.00015451872 1/REarth

Two-line elements (TLE)

Creation date: Dec. 14, 2025, 3:07 a.m.

Reference frame: TEME

Reference center: EARTH

Epoch: Dec. 13, 2025, 3:26 p.m. UTC

TLE line 0: 0 SL-8 R/B

TLE line 1: 1 16728U 86037B 25347.64357899 .00000169 00000-0 15452-3 0 9996

TLE line 2: 2 16728 82.9544 197.1320 0030958 161.9029 258.6779 13.77052920987086

Live tracking on map

Real-time ground track for satellite SL-8 R/B.

In-orbit conjunctions

A list of the most updated potential collisions computed for object SL-8 R/B.

Target Orbit TCA Probability of collision Miss distance Type
FENGYUN 1C DEB SSO 2024-10-28 03:57:35 0.0001234208 602.0 (m) DEBRIS

Associated space launch

Navigation satellite providing location information for the Tsiklon-B navigation system

SL-8 R/B was lifted into orbit during the mission ‘Kosmos-3M | Parus 54’, on board a Kosmos-3M space rocket.

The launch took place on May 23, 1986, 12:54 p.m. from 132/1 (132L).

For more information about the launch, click the button.

Launch to space Kosmos-3M | Parus 54
Kosmos-3M | Parus 54

Agency: N/A

Status: Launch Successful

Launch date: May 23, 1986, 12:54 p.m. UTC

Rocket: Kosmos-3M

Launch pad: 132/1 (132L)

Location: Plesetsk Cosmodrome, Russian Federation

...

Latest news about this satellite

There are no fresh news available about this satellite. Check back as we update our databases every day.


Newsletter sign-up

Weekly statistics, charts and insights to help you stay on top of the space industry.